Home   Weather   Arnsberg   Past weeks

Flag for Germany Past Weather in Arnsberg, North Rhine-Westphalia, Germany — Yesterday and Last 2 Weeks

Now
48 °F

Passing clouds.


Feels Like: 42 °F
Forecast: 43 / 49 °F
Wind: 17 mph from Southwest

Location: Dortmund / Wickede

Current Time: Feb 21, 2017 at 12:20:05 am

Latest Report: Feb 20, 2017 at 9:50 pm


Visibility: 5 mi

Pressure: 29.89 "Hg

Humidity: 94%

Dew Point: 46 °F

Location of ArnsbergLocation

Past Weather in Arnsberg — Graph

°F

Arnsberg Temperature Yesterday

Maximum temperature yesterday: 48 °F (at 7:20 pm)
Minimum temperature yesterday: 43 °F (at 5:20 am)
Average temperature yesterday: 46 °F

High & Low Weather Summary for the Past Weeks

 TemperatureHumidityPressure
High61 °F (Feb 15, 2:50 pm)94% (Feb 20, 9:50 pm)30.51 "Hg (Feb 20, 9:50 pm)
Low27 °F (Feb 9, 7:20 am)29% (Feb 15, 2:50 pm)29.71 "Hg (Feb 5, 9:20 pm)
Average38 °F76%30.22 "Hg
* Reported Feb 5 9:20 pm — Feb 20 9:50 pm, Arnsberg, Weather by CustomWeather, © 2017

Note: Actual official high and low records may vary slightly from our data, if they occured in-between our weather recording intervals... More about our weather records

Advertising

Arnsberg Weather History for the Previous 24 Hours

Scroll right to see more
 ConditionsComfort  
Time TempWeatherWind HumidityBarometerVisibility
9:50 pm
Mon, Feb 20
48 °FPassing clouds.17 mph94%29.89 "Hg5 mi
9:20 pm48 °FPassing clouds.20 mph87%29.89 "Hg6 mi
8:50 pm48 °FPassing clouds.18 mph87%29.92 "HgN/A
8:20 pm48 °FPassing clouds.17 mph87%29.92 "Hg5 mi
7:50 pm48 °FPassing clouds.16 mph87%29.92 "HgN/A
7:20 pm48 °FPassing clouds.16 mph87%29.92 "HgN/A
6:50 pm46 °FDrizzle. Fog.18 mph87%29.92 "Hg2 mi
6:20 pm46 °FFog.18 mph87%29.92 "Hg2 mi
5:50 pm46 °FFog.18 mph87%29.92 "Hg2 mi
5:20 pm46 °FFog.16 mph87%29.92 "Hg2 mi
4:50 pm46 °FPartly sunny.16 mph87%29.92 "Hg4 mi
4:20 pm46 °FDrizzle. Partly sunny.17 mph87%29.92 "Hg4 mi
3:50 pm46 °FPartly sunny.16 mph87%29.92 "HgN/A
3:20 pm46 °FPartly sunny.18 mph87%29.95 "HgN/A
2:50 pm46 °FPartly sunny.20 mph87%29.95 "Hg4 mi
2:20 pm46 °FDrizzle. Low clouds.18 mph87%29.95 "Hg6 mi
1:50 pm46 °FDrizzle. Fog.17 mph87%29.98 "Hg3 mi
1:20 pm46 °FDrizzle. Overcast.20 mph87%29.98 "Hg5 mi
12:50 pm46 °FLow clouds.18 mph87%29.98 "Hg6 mi
12:20 pm46 °FDrizzle. Fog.17 mph87%29.98 "Hg2 mi
11:50 am46 °FLow clouds.18 mph82%30.01 "HgN/A
11:20 am46 °FPartly sunny.17 mph82%30.01 "HgN/A
10:50 am45 °FPartly sunny.16 mph87%30.01 "Hg6 mi
10:20 am45 °FLow clouds.17 mph87%30.01 "Hg6 mi
9:50 am45 °FLow clouds.16 mph87%30.01 "HgN/A
9:20 am45 °FFog.17 mph87%30.04 "Hg2 mi
8:50 am45 °FFog.14 mph81%30.04 "Hg3 mi
8:20 am45 °FOvercast.14 mph81%30.04 "Hg4 mi
7:50 am45 °FLow clouds.14 mph81%30.04 "Hg5 mi
7:20 am43 °FLow clouds.15 mph87%30.07 "Hg5 mi
6:50 am43 °FLow clouds.14 mph87%30.04 "Hg4 mi
6:20 am43 °FPassing clouds.14 mph87%30.07 "Hg5 mi
5:50 am43 °FPartly cloudy.13 mph87%30.07 "Hg5 mi
5:20 am43 °FPassing clouds.10 mph87%30.07 "Hg4 mi
Weather by CustomWeather, © 2017

See weather overviewHow to use our weather pages